Home > Weather > Valladolid > Past weeks

Flag for Spain Past Weather in Valladolid, Spain — Yesterday and Last 2 Weeks

Now
86 °F

Sunny.


Feels Like: 83 °F
Forecast: 62 / 94 °F
Wind: 3 mph from Southeast

Location: Valladolid / Villanubla

Current Time: Jul 25, 2016 at 4:07:48 PM

Latest Report: Jul 25, 2016 at 3:30 PM


Visibility: 10 mi

Pressure: 30.18 "Hg (27.85 "Hg at 712m altitude)

Humidity: 20%

Dew Point: 41 °F

Location of ValladolidLocation

Past Weather in Valladolid — Graph

°F

Valladolid Temperature Yesterday

Maximum temperature yesterday: 84 °F (at 7:00 PM)
Minimum temperature yesterday: 55 °F (at 7:00 AM)
Average temperature yesterday: 73 °F

High & Low Weather Summary for the Past Weeks

 TemperatureHumidityPressure
High97 °F (Jul 18, 4:00 PM)94% (Jul 21, 7:00 AM)30.33 "Hg (Jul 21, 7:00 AM)
Low45 °F (Jul 15, 7:30 AM)12% (Jul 15, 5:30 PM)30.01 "Hg (Jul 10, 6:30 PM)
Average74 °F39%30.14 "Hg
* Reported Jul 10 3:00 PM — Jul 25 3:00 PM, Valladolid, Weather by CustomWeather, © 2016

Note: Actual official high and low records may vary slightly from our data, if they occured in-between our weather recording intervals... More about our weather records

Advertising

Valladolid Weather History for the Previous 24 Hours

Scroll right to see more
 ConditionsComfort  
Time TempWeatherWind HumidityBarometerVisibility
3:00 PM
Mon, Jul 25
84 °FSunny.3 mph20%30.18 "Hg10 mi
2:30 PM84 °FSunny.3 mph22%30.18 "Hg10 mi
2:00 PM82 °FSunny.2 mph23%30.18 "Hg10 mi
1:30 PM82 °FSunny.3 mph25%30.21 "Hg10 mi
1:00 PM81 °FPassing clouds.6 mph28%30.21 "HgN/A
12:30 PM79 °FPassing clouds.5 mph30%30.21 "HgN/A
12:00 PM77 °FPassing clouds.5 mph34%30.21 "HgN/A
11:30 AM75 °FSunny.6 mph36%30.21 "Hg10 mi
11:00 AM72 °FPassing clouds.7 mph44%30.21 "HgN/A
10:30 AM70 °FPassing clouds.6 mph43%30.21 "HgN/A
10:00 AM68 °FSunny.8 mph46%30.21 "Hg10 mi
9:30 AM64 °FSunny.7 mph52%30.21 "Hg10 mi
9:00 AM63 °FPassing clouds.5 mph56%30.18 "HgN/A
8:30 AM61 °FPassing clouds.3 mph59%30.18 "HgN/A
8:00 AM57 °FClear.3 mph67%30.18 "Hg10 mi
7:30 AM55 °FClear.6 mph67%30.18 "Hg10 mi
7:00 AM57 °FClear.9 mph63%30.18 "Hg10 mi
9:30 PM
Sun, Jul 24
75 °FSunny.6 mph27%30.15 "Hg10 mi
9:00 PM81 °FSunny.6 mph21%30.15 "Hg10 mi
8:30 PM82 °FPassing clouds.9 mph20%30.15 "HgN/A
8:00 PM82 °FPassing clouds.8 mph19%30.15 "HgN/A
7:30 PM84 °FPassing clouds.9 mph18%30.15 "HgN/A
7:00 PM84 °FPassing clouds.7 mph18%30.15 "HgN/A
6:30 PM82 °FPassing clouds.8 mph19%30.15 "HgN/A
6:00 PM82 °FPassing clouds.9 mph21%30.15 "HgN/A
5:30 PM82 °FSunny.3 mph20%30.15 "Hg10 mi
5:00 PM82 °FPassing clouds.9 mph17%30.15 "HgN/A
4:30 PM82 °FPassing clouds.6 mph17%30.18 "HgN/A
4:00 PM82 °FPassing clouds.7 mph16%30.18 "HgN/A
Weather by CustomWeather, © 2016

See weather overviewHow to use our weather pages